Hourly Data Report for October 13, 2015

All times are specified in Local Standard Time (LST). Add 1 hour to adjust for Daylight Saving Time where and when it is observed.

CHARLOTTETOWN A
PRINCE EDWARD ISLAND

46°17'21.000" N
63°07'09.000" W
48.50 m
8300301
71706
YYG

Download Data

Hourly Data (October 2015)
Hourly Data Report for October 13, 2015
Temp Definition
°C
Dew Point Temp Definition
°C
Rel Hum Definition
%
Wind Dir Definition
10's deg

Wind Spd Definition
km/h
Visibility Definition
km
Stn Press Definition
kPa
Hmdx Definition


Wind Chill Definition


Weather Definition


TIME
00:00 Legend Double Dagger 11.5 11.1 97 16 13 24.1 100.56     LegendNANA
01:00 Legend Double Dagger 12.3 11.8 97 16 16 24.1 100.54     LegendNANA
02:00 Legend Double Dagger 11.9 11.6 98 14 11 24.1 100.50     Clear
03:00 Legend Double Dagger 11.6 11.5 99 16 17 24.1 100.48     LegendNANA
04:00 Legend Double Dagger 11.5 11.4 99 15 14 24.1 100.47     LegendNANA
05:00 Legend Double Dagger 11.7 11.6 99 15 13 24.1 100.47     Clear
06:00 Legend Double Dagger 12.0 11.7 98 17 22 24.1 100.47     LegendNANA
07:00 Legend Double Dagger 12.5 11.7 95 18 17 16.1 100.47     LegendNANA
08:00 Legend Double Dagger 13.7 12.9 95 17 26 16.1 100.45     Cloudy
09:00 Legend Double Dagger 14.3 13.4 94 15 17 24.1 100.38     LegendNANA
10:00 Legend Double Dagger 16.6 13.6 82 15 23 24.1 100.32     LegendNANA
11:00 Legend Double Dagger 17.0 14.0 82 13 20 24.1 100.23     Mostly Cloudy
12:00 Legend Double Dagger 17.9 14.8 82 13 16 24.1 100.08     LegendNANA
13:00 Legend Double Dagger 18.2 16.6 90 13 15 16.1 99.97     Rain
14:00 Legend Double Dagger 17.2 16.9 98 12 16 4.8 99.81     Moderate Rain,Fog
15:00 Legend Double Dagger 17.1 16.8 98 12 16 9.7 99.69     Rain,Fog
16:00 Legend Double Dagger 17.5 17.2 98 12 11 11.3 99.60     Rain
17:00 Legend Double Dagger 17.1 16.9 99 11 14 2.4 99.48     Rain,Fog
18:00 Legend Double Dagger 17.4 17.2 99 16 21 9.7 99.42     Rain
19:00 Legend Double Dagger 18.0 17.5 97 17 28 16.1 99.38     LegendNANA
20:00 Legend Double Dagger 18.2 17.6 96 17 27 24.1 99.35     Cloudy
21:00 Legend Double Dagger 18.2 17.6 96 18 24 24.1 99.30     LegendNANA
22:00 Legend Double Dagger 18.3 17.3 94 18 25 24.1 99.28     LegendNANA
23:00 Legend Double Dagger 18.3 17.3 94 19 27 24.1 99.25     Cloudy

Notes on Data Quality.

Legend

  • E = Estimated
  • M = Missing
  • NA = Not Available
  • ‡ = Partner data that is not subject to review by the National Climate Archives
Date modified: